Albuquerque Double Eagle, NM

5:26 AM MDT on July 28, 2017 (GMT -0600)
Double Eagle Ii

Weather History for KAEG - December, 2013

Change the Weather History Date:

Monday, December 16, 2013

  Actual Average (KABQ) Record (KABQ)
Temperature  
Mean Temperature 37 °F -  
Max Temperature 53 °F 46 °F 65 °F (1917)
Min Temperature 21 °F 22 °F 5 °F (1971)
Degree Days  
Heating Degree Days 28    
Moisture  
Dew Point 18 °F    
Average Humidity 52    
Maximum Humidity 77    
Minimum Humidity 26    
Precipitation  
Precipitation 0.00 in - - ()
Sea Level Pressure  
Sea Level Pressure 30.37 in    
Wind  
Wind Speed 5 mph (NW)    
Max Wind Speed 14 mph    
Max Gust Speed 18 mph    
Visibility 10 miles    
Events      
Averages and records for this station are not official NWS values.
T = Trace of Precipitation, MM = Missing Value Source: NWS Daily Summary

Daily Weather History Graph

Daily Weather History Graph

Search for Another Location

Airport or City:

Trip Planner

Search our weather history database for the weather conditions in past years. The results will help you decide how hot, cold, wet, or windy it might be!

Date:

Astronomy

Dec. 16, 2013 Rise Set
Actual Time 7:09 AM MST 4:56 PM MST
Civil Twilight 6:40 AM MST 5:25 PM MST
Nautical Twilight 6:09 AM MST 5:56 PM MST
Astronomical Twilight 5:38 AM MST 6:27 PM MST
Moon 4:47 PM MST (12/16) 6:21 AM MST (12/16)
Length of Visible Light 10h 44m
Length of Day
9h 47m
Full, 100% of the Moon is Illuminated
Dec 16
Full
Dec 17
Full
Dec 25
Last Quarter
Jan 1
New
Jan 7
First Quarter

Hourly Weather History & Observations

Time (MST) Temp. Windchill Dew Point Humidity Pressure Visibility Wind Dir Wind Speed Gust Speed Precip Events Conditions
12:15 AM 27.9 °F - 16.2 °F 62% 30.38 in 10.0 mi Calm Calm - N/A   Clear
12:35 AM 26.8 °F - 16.5 °F 65% 30.37 in 10.0 mi Calm Calm - N/A   Clear
12:55 AM 28.6 °F - 17.2 °F 63% 30.37 in 10.0 mi Calm Calm - N/A   Clear
1:15 AM 27.3 °F - 16.5 °F 64% 30.37 in 10.0 mi Calm Calm - N/A   Clear
1:35 AM 26.4 °F 20.9 °F 16.7 °F 67% 30.37 in 10.0 mi NNE 4.6 mph - N/A   Clear
1:55 AM 29.3 °F 25.6 °F 18.0 °F 63% 30.37 in 10.0 mi North 3.5 mph - N/A   Clear
2:15 AM 30.4 °F - 17.6 °F 59% 30.37 in 10.0 mi Calm Calm - N/A   Clear
2:35 AM 29.1 °F 24.1 °F 17.6 °F 62% 30.36 in 10.0 mi North 4.6 mph - N/A   Clear
2:55 AM 21.4 °F 13.8 °F 15.3 °F 77% 30.37 in 10.0 mi WSW 5.8 mph - N/A   Clear
3:15 AM 28.6 °F 19.3 °F 18.7 °F 66% 30.35 in 10.0 mi North 10.4 mph - N/A   Clear
3:35 AM 23.7 °F 16.6 °F 15.8 °F 72% 30.35 in 10.0 mi NNW 5.8 mph - N/A   Clear
3:55 AM 27.9 °F 17.3 °F 18.3 °F 67% 30.35 in 10.0 mi NNW 12.7 mph - N/A   Clear
4:15 AM 31.8 °F 22.3 °F 18.3 °F 57% 30.35 in 10.0 mi NW 12.7 mph - N/A   Clear
4:35 AM 27.3 °F 17.7 °F 17.1 °F 65% 30.35 in 10.0 mi West 10.4 mph - N/A   Clear
5:50 AM 24.8 °F 20.5 °F 15.8 °F 69% 30.35 in 10.0 mi WSW 3.5 mph - N/A   Clear
6:50 AM 26.6 °F - 15.8 °F 64% 30.35 in 10.0 mi Calm Calm - N/A   Clear
7:50 AM 28.4 °F 24.6 °F 17.6 °F 64% 30.38 in 10.0 mi West 3.5 mph - N/A   Clear
8:50 AM 37.4 °F - 17.6 °F 45% 30.40 in 10.0 mi Calm Calm - N/A   Clear
9:50 AM 41.0 °F - 19.4 °F 42% 30.42 in 10.0 mi Calm Calm - N/A   Clear
10:50 AM 42.8 °F - 19.4 °F 39% 30.41 in 10.0 mi Calm Calm - N/A   Clear
11:50 AM 46.4 °F 42.9 °F 19.4 °F 34% 30.38 in 10.0 mi SE 6.9 mph - N/A   Clear
12:49 PM 48.2 °F - 19.4 °F 32% 30.35 in 10.0 mi SSE 4.6 mph - N/A   Partly Cloudy
1:49 PM 53.6 °F - 19.4 °F 26% 30.33 in 10.0 mi West 5.8 mph - N/A   Partly Cloudy
2:49 PM 53.6 °F - 21.2 °F 28% 30.32 in 10.0 mi WNW 11.5 mph - N/A   Partly Cloudy
3:48 PM 51.8 °F - 21.2 °F 30% 30.32 in 10.0 mi NW 9.2 mph 18.4 mph N/A   Partly Cloudy
4:48 PM 46.4 °F 40.7 °F 19.4 °F 34% 30.33 in 10.0 mi NW 12.7 mph - N/A   Partly Cloudy
5:50 PM 44.6 °F 38.8 °F 19.4 °F 37% 30.34 in 10.0 mi North 11.5 mph - N/A   Clear
6:48 PM 39.2 °F 31.2 °F 19.4 °F 45% 30.35 in 10.0 mi NW 13.8 mph - N/A   Clear
7:48 PM 42.8 °F 35.8 °F 19.4 °F 39% 30.34 in 10.0 mi WNW 13.8 mph - N/A   Clear
8:48 PM 37.4 °F 31.4 °F 19.4 °F 48% 30.37 in 10.0 mi NNW 8.1 mph - N/A   Clear
9:15 PM 36.7 °F 29.9 °F 18.7 °F 48% 30.37 in 10.0 mi NW 9.2 mph - N/A   Clear
9:35 PM 36.7 °F 29.4 °F 18.3 °F 47% 30.38 in 10.0 mi NNW 10.4 mph - N/A   Clear
9:48 PM 35.6 °F 28.6 °F 17.6 °F 48% 30.38 in 10.0 mi NW 9.2 mph - N/A   Clear
9:55 PM 35.6 °F 26.6 °F 18.3 °F 50% 30.38 in 10.0 mi NW 13.8 mph - N/A   Clear
10:15 PM 36.9 °F 28.7 °F 18.3 °F 47% 30.38 in 10.0 mi WNW 12.7 mph - N/A   Clear
10:55 PM 35.8 °F 26.9 °F 18.3 °F 49% 30.38 in 10.0 mi WNW 13.8 mph - N/A   Clear
11:15 PM 36.7 °F 29.9 °F 19.0 °F 49% 30.39 in 10.0 mi NW 9.2 mph - N/A   Clear
11:35 PM 32.4 °F 27.9 °F 18.0 °F 55% 30.40 in 10.0 mi East 4.6 mph - N/A   Clear
11:55 PM 37.9 °F 35.5 °F 19.2 °F 47% 30.41 in 10.0 mi East 3.5 mph - N/A   Clear